Time,TemperatureF,DewpointF,PressureIn,WindDirection,WindDirectionDegrees,WindSpeedMPH,WindSpeedGustMPH,Humidity,HourlyPrecipIn,Conditions,Clouds,dailyrainin,SolarRadiationWatts/m^2,SoftwareType,DateUTC
2013-03-24 00:01:00,70.5,70.0,29.82,ESE,121,4.0,6.0,99,0.00,,,0.00,0,weatherlink.com 1.10,2013-03-24 04:01:00,
2013-03-24 00:16:00,70.5,70.0,29.81,ESE,114,2.0,7.0,99,0.00,,,0.00,0,weatherlink.com 1.10,2013-03-24 04:16:00,
2013-03-24 00:31:00,70.6,70.0,29.80,SE,142,3.0,6.0,99,0.00,,,0.00,0,weatherlink.com 1.10,2013-03-24 04:31:00,
2013-03-24 00:46:00,70.5,70.0,29.80,SE,140,1.0,7.0,99,0.00,,,0.00,0,weatherlink.com 1.10,2013-03-24 04:46:00,
2013-03-24 01:01:00,70.4,70.0,29.79,SSE,164,2.0,8.0,98,0.00,,,0.00,0,weatherlink.com 1.10,2013-03-24 05:01:00,
2013-03-24 01:16:00,70.3,70.0,29.78,ESE,117,5.0,5.0,99,0.00,,,0.00,0,weatherlink.com 1.10,2013-03-24 05:16:00,
2013-03-24 01:35:00,70.3,70.0,29.78,SSW,192,3.0,7.0,99,0.00,,,0.00,0,weatherlink.com 1.10,2013-03-24 05:35:00,
2013-03-24 01:46:00,70.2,70.0,29.77,SE,135,1.0,7.0,98,0.00,,,0.00,0,weatherlink.com 1.10,2013-03-24 05:46:00,
2013-03-24 02:01:00,70.1,70.0,29.77,SSE,167,2.0,7.0,99,0.00,,,0.00,0,weatherlink.com 1.10,2013-03-24 06:01:00,
2013-03-24 02:16:00,70.0,70.0,29.76,SSE,158,2.0,7.0,99,0.00,,,0.00,0,weatherlink.com 1.10,2013-03-24 06:16:00,
2013-03-24 02:31:00,69.8,70.0,29.75,SSE,159,2.0,7.0,99,0.00,,,0.00,0,weatherlink.com 1.10,2013-03-24 06:31:00,
2013-03-24 02:46:00,69.8,69.0,29.75,SSW,192,1.0,9.0,98,0.00,,,0.00,0,weatherlink.com 1.10,2013-03-24 06:46:00,
2013-03-24 03:01:00,69.7,69.0,29.73,SSE,168,3.0,8.0,98,0.00,,,0.00,0,weatherlink.com 1.10,2013-03-24 07:01:00,
2013-03-24 03:17:00,69.7,69.0,29.72,SSE,167,3.0,9.0,98,0.00,,,0.00,0,weatherlink.com 1.10,2013-03-24 07:17:00,
2013-03-24 03:32:00,69.7,69.0,29.71,SE,125,3.0,7.0,98,0.00,,,0.00,0,weatherlink.com 1.10,2013-03-24 07:32:00,
2013-03-24 03:47:00,69.8,69.0,29.71,South,188,3.0,8.0,98,0.00,,,0.00,0,weatherlink.com 1.10,2013-03-24 07:47:00,
2013-03-24 04:02:00,69.8,69.0,29.72,South,173,5.0,7.0,98,0.00,,,0.00,0,weatherlink.com 1.10,2013-03-24 08:02:00,
2013-03-24 04:17:00,69.9,69.0,29.71,SE,146,3.0,7.0,98,0.00,,,0.00,0,weatherlink.com 1.10,2013-03-24 08:17:00,
2013-03-24 04:32:00,70.1,69.0,29.71,SSE,158,2.0,6.0,97,0.00,,,0.00,0,weatherlink.com 1.10,2013-03-24 08:32:00,
2013-03-24 04:47:00,70.5,70.0,29.70,South,182,9.0,11.0,97,0.00,,,0.00,0,weatherlink.com 1.10,2013-03-24 08:47:00,
2013-03-24 05:02:00,70.9,70.0,29.71,SSE,167,3.0,13.0,96,0.00,,,0.00,0,weatherlink.com 1.10,2013-03-24 09:02:00,
2013-03-24 05:17:00,70.9,70.0,29.70,SSW,209,3.0,10.0,96,0.00,,,0.00,0,weatherlink.com 1.10,2013-03-24 09:17:00,
2013-03-24 05:32:00,70.8,70.0,29.70,SW,218,5.0,12.0,96,0.00,,,0.00,0,weatherlink.com 1.10,2013-03-24 09:32:00,
2013-03-24 06:02:00,70.5,69.0,29.69,South,171,3.0,13.0,96,0.00,,,0.00,0,weatherlink.com 1.10,2013-03-24 10:02:00,
2013-03-24 06:17:00,70.5,69.0,29.69,SSW,196,5.0,11.0,96,0.00,,,0.00,0,weatherlink.com 1.10,2013-03-24 10:17:00,
2013-03-24 06:32:00,70.6,70.0,29.69,SSW,199,2.0,12.0,97,0.00,,,0.00,0,weatherlink.com 1.10,2013-03-24 10:32:00,
2013-03-24 06:47:00,70.6,70.0,29.69,South,186,7.0,10.0,97,0.00,,,0.00,0,weatherlink.com 1.10,2013-03-24 10:47:00,
2013-03-24 07:02:00,70.3,69.0,29.69,SSE,157,6.0,11.0,97,0.00,,,0.00,0,weatherlink.com 1.10,2013-03-24 11:02:00,
2013-03-24 07:17:00,70.1,69.0,29.70,South,190,3.0,9.0,97,0.00,,,0.00,0,weatherlink.com 1.10,2013-03-24 11:17:00,
2013-03-24 07:32:00,69.9,69.0,29.70,SSE,159,3.0,10.0,97,0.00,,,0.00,0,weatherlink.com 1.10,2013-03-24 11:32:00,
2013-03-24 07:47:00,69.8,69.0,29.70,SSE,163,1.0,9.0,97,0.00,,,0.00,9,weatherlink.com 1.10,2013-03-24 11:47:00,
2013-03-24 08:02:00,69.8,69.0,29.70,WSW,238,4.0,10.0,98,0.00,,,0.00,21,weatherlink.com 1.10,2013-03-24 12:02:00,
2013-03-24 08:17:00,69.9,69.0,29.70,SSW,204,5.0,11.0,98,0.00,,,0.00,42,weatherlink.com 1.10,2013-03-24 12:17:00,
2013-03-24 08:32:00,69.9,69.0,29.70,SSW,211,3.0,10.0,98,0.00,,,0.00,91,weatherlink.com 1.10,2013-03-24 12:32:00,
2013-03-24 08:47:00,70.1,70.0,29.70,SW,214,3.0,11.0,98,0.00,,,0.00,72,weatherlink.com 1.10,2013-03-24 12:47:00,
2013-03-24 09:02:00,70.4,70.0,29.72,SSW,207,3.0,8.0,98,0.00,,,0.00,77,weatherlink.com 1.10,2013-03-24 13:02:00,
2013-03-24 09:17:00,70.5,70.0,29.74,SSW,209,6.0,11.0,98,0.00,,,0.00,86,weatherlink.com 1.10,2013-03-24 13:17:00,
2013-03-24 09:32:00,70.1,70.0,29.74,SSW,202,7.0,10.0,98,0.00,,,0.00,105,weatherlink.com 1.10,2013-03-24 13:32:00,
2013-03-24 09:47:00,70.0,69.0,29.75,SSW,195,2.0,12.0,98,0.00,,,0.00,47,weatherlink.com 1.10,2013-03-24 13:47:00,
2013-03-24 10:02:00,69.4,69.0,29.75,South,171,1.0,10.0,98,0.00,,,0.00,76,weatherlink.com 1.10,2013-03-24 14:02:00,
2013-03-24 10:17:00,69.8,70.0,29.76,SSW,208,3.0,8.0,99,0.00,,,0.00,95,weatherlink.com 1.10,2013-03-24 14:17:00,
2013-03-24 10:32:00,70.4,70.0,29.76,SSW,202,4.0,10.0,99,0.00,,,0.00,148,weatherlink.com 1.10,2013-03-24 14:32:00,
2013-03-24 10:47:00,70.9,70.0,29.77,SW,227,5.0,10.0,98,0.00,,,0.00,165,weatherlink.com 1.10,2013-03-24 14:47:00,
2013-03-24 11:02:00,72.1,72.0,29.77,SSW,209,7.0,10.0,98,0.00,,,0.00,202,weatherlink.com 1.10,2013-03-24 15:02:00,
2013-03-24 11:17:00,72.7,72.0,29.76,SW,236,5.0,11.0,96,0.00,,,0.00,199,weatherlink.com 1.10,2013-03-24 15:17:00,
2013-03-24 11:32:00,75.5,73.0,29.75,SSW,207,5.0,11.0,93,0.00,,,0.00,450,weatherlink.com 1.10,2013-03-24 15:32:00,
2013-03-24 11:47:00,77.7,74.0,29.75,SSW,207,7.0,10.0,88,0.00,,,0.00,554,weatherlink.com 1.10,2013-03-24 15:47:00,
2013-03-24 12:02:00,78.1,74.0,29.75,SSW,205,3.0,11.0,86,0.00,,,0.00,383,weatherlink.com 1.10,2013-03-24 16:02:00,
2013-03-24 12:17:00,77.4,73.0,29.75,SW,218,2.0,13.0,86,0.00,,,0.00,359,weatherlink.com 1.10,2013-03-24 16:17:00,
2013-03-24 12:32:00,76.6,73.0,29.74,SSW,206,5.0,14.0,88,0.00,,,0.00,541,weatherlink.com 1.10,2013-03-24 16:32:00,
2013-03-24 12:47:00,76.9,73.0,29.73,SE,140,6.0,13.0,86,0.00,,,0.00,510,weatherlink.com 1.10,2013-03-24 16:47:00,
2013-03-24 13:03:00,79.3,73.0,29.72,SW,219,4.0,14.0,82,0.00,,,0.00,858,weatherlink.com 1.10,2013-03-24 17:03:00,
2013-03-24 13:18:00,79.8,74.0,29.71,SSE,148,3.0,14.0,82,0.00,,,0.00,575,weatherlink.com 1.10,2013-03-24 17:18:00,
2013-03-24 13:33:00,77.9,72.0,29.70,SE,134,5.0,10.0,82,0.00,,,0.00,255,weatherlink.com 1.10,2013-03-24 17:33:00,
2013-03-24 13:48:00,76.5,72.0,29.69,SSW,192,3.0,12.0,86,0.00,,,0.00,265,weatherlink.com 1.10,2013-03-24 17:48:00,
2013-03-24 14:05:00,74.8,71.0,29.70,SW,229,9.0,17.0,88,0.00,,,0.00,216,weatherlink.com 1.10,2013-03-24 18:05:00,
2013-03-24 14:18:00,74.8,71.0,29.69,South,173,3.0,13.0,88,0.00,,,0.00,113,weatherlink.com 1.10,2013-03-24 18:18:00,
2013-03-24 14:33:00,74.8,72.0,29.68,SSW,194,7.0,16.0,90,0.00,,,0.00,223,weatherlink.com 1.10,2013-03-24 18:33:00,
2013-03-24 14:48:00,73.8,71.0,29.68,SW,221,11.0,15.0,91,0.00,,,0.00,148,weatherlink.com 1.10,2013-03-24 18:48:00,
2013-03-24 15:03:00,74.3,72.0,29.68,South,185,2.0,17.0,91,0.00,,,0.00,283,weatherlink.com 1.10,2013-03-24 19:03:00,
2013-03-24 15:18:00,74.3,71.0,29.67,SW,215,6.0,13.0,90,0.00,,,0.00,162,weatherlink.com 1.10,2013-03-24 19:18:00,
2013-03-24 15:33:00,74.5,71.0,29.67,SW,220,6.0,13.0,89,0.00,,,0.00,206,weatherlink.com 1.10,2013-03-24 19:33:00,
2013-03-24 15:48:00,74.4,71.0,29.67,SW,221,5.0,12.0,89,0.00,,,0.00,185,weatherlink.com 1.10,2013-03-24 19:48:00,
2013-03-24 16:03:00,74.2,71.0,29.66,WSW,243,4.0,14.0,90,0.00,,,0.00,390,weatherlink.com 1.10,2013-03-24 20:03:00,
2013-03-24 16:18:00,74.8,71.0,29.66,SW,223,6.0,15.0,89,0.00,,,0.00,221,weatherlink.com 1.10,2013-03-24 20:18:00,
2013-03-24 16:33:00,74.8,71.0,29.66,SSW,209,7.0,12.0,89,0.00,,,0.00,171,weatherlink.com 1.10,2013-03-24 20:33:00,
2013-03-24 16:48:00,74.3,71.0,29.66,SW,219,6.0,13.0,89,0.00,,,0.00,200,weatherlink.com 1.10,2013-03-24 20:48:00,
2013-03-24 17:03:00,74.3,71.0,29.65,SW,220,7.0,13.0,90,0.00,,,0.00,158,weatherlink.com 1.10,2013-03-24 21:03:00,
2013-03-24 17:18:00,73.5,71.0,29.66,WSW,244,3.0,12.0,91,0.00,,,0.00,188,weatherlink.com 1.10,2013-03-24 21:18:00,
2013-03-24 17:33:00,73.1,71.0,29.65,SW,220,8.0,13.0,92,0.00,,,0.00,113,weatherlink.com 1.10,2013-03-24 21:33:00,
2013-03-24 17:48:00,72.9,71.0,29.66,SSW,202,10.0,16.0,93,0.00,,,0.00,58,weatherlink.com 1.10,2013-03-24 21:48:00,
2013-03-24 18:03:00,73.0,71.0,29.66,SSW,206,7.0,15.0,93,0.00,,,0.00,63,weatherlink.com 1.10,2013-03-24 22:03:00,
2013-03-24 18:18:00,72.7,71.0,29.66,SSW,213,9.0,16.0,93,0.00,,,0.00,95,weatherlink.com 1.10,2013-03-24 22:18:00,
2013-03-24 18:33:00,72.3,71.0,29.67,SW,217,5.0,14.0,94,0.00,,,0.00,88,weatherlink.com 1.10,2013-03-24 22:33:00,
2013-03-24 18:48:00,72.2,70.0,29.67,SW,231,9.0,13.0,94,0.00,,,0.00,60,weatherlink.com 1.10,2013-03-24 22:48:00,
2013-03-24 19:03:00,72.4,71.0,29.67,SW,229,8.0,12.0,94,0.00,,,0.00,40,weatherlink.com 1.10,2013-03-24 23:03:00,
2013-03-24 19:18:00,72.0,70.0,29.68,SW,233,4.0,13.0,94,0.00,,,0.00,7,weatherlink.com 1.10,2013-03-24 23:18:00,
2013-03-24 19:33:00,71.6,70.0,29.69,WSW,248,6.0,13.0,95,0.00,,,0.00,7,weatherlink.com 1.10,2013-03-24 23:33:00,
2013-03-24 19:48:00,71.4,70.0,29.69,WSW,250,5.0,9.0,95,0.00,,,0.00,0,weatherlink.com 1.10,2013-03-24 23:48:00,
2013-03-24 20:03:00,71.3,70.0,29.70,SW,232,6.0,10.0,95,0.00,,,0.00,0,weatherlink.com 1.10,2013-03-25 00:03:00,
2013-03-24 20:18:00,71.3,70.0,29.70,WSW,256,3.0,9.0,96,0.00,,,0.00,0,weatherlink.com 1.10,2013-03-25 00:18:00,
2013-03-24 20:33:00,71.2,70.0,29.71,West,272,1.0,8.0,96,0.00,,,0.00,0,weatherlink.com 1.10,2013-03-25 00:33:00,
2013-03-24 20:48:00,70.9,70.0,29.71,SW,234,3.0,8.0,96,0.00,,,0.00,0,weatherlink.com 1.10,2013-03-25 00:48:00,
2013-03-24 21:03:00,70.5,70.0,29.72,West,276,2.0,4.0,97,0.00,,,0.00,0,weatherlink.com 1.10,2013-03-25 01:03:00,
2013-03-24 21:18:00,70.3,69.0,29.72,West,268,1.0,5.0,97,0.00,,,0.00,0,weatherlink.com 1.10,2013-03-25 01:18:00,
2013-03-24 21:33:00,70.1,69.0,29.73,West,281,3.0,6.0,97,0.00,,,0.00,0,weatherlink.com 1.10,2013-03-25 01:33:00,
2013-03-24 21:48:00,69.9,69.0,29.73,WNW,290,2.0,6.0,97,0.00,,,0.00,0,weatherlink.com 1.10,2013-03-25 01:48:00,
2013-03-24 22:03:00,69.8,69.0,29.74,West,269,5.0,8.0,96,0.00,,,0.00,0,weatherlink.com 1.10,2013-03-25 02:03:00,
2013-03-24 22:33:00,69.4,68.0,29.75,West,277,1.0,7.0,94,0.00,,,0.00,0,weatherlink.com 1.10,2013-03-25 02:33:00,
2013-03-24 22:48:00,69.2,68.0,29.76,WSW,248,1.0,8.0,94,0.00,,,0.00,0,weatherlink.com 1.10,2013-03-25 02:48:00,
2013-03-24 23:03:00,69.0,67.0,29.75,WSW,244,1.0,6.0,93,0.00,,,0.00,0,weatherlink.com 1.10,2013-03-25 03:03:00,
2013-03-24 23:18:00,68.8,67.0,29.75,WSW,258,4.0,6.0,93,0.00,,,0.00,0,weatherlink.com 1.10,2013-03-25 03:18:00,
2013-03-24 23:33:00,68.2,66.0,29.75,WSW,249,2.0,4.0,93,0.00,,,0.00,0,weatherlink.com 1.10,2013-03-25 03:33:00,
2013-03-24 23:48:00,67.8,66.0,29.75,SW,236,1.0,5.0,94,0.00,,,0.00,0,weatherlink.com 1.10,2013-03-25 03:48:00,